Wind_Speed
9 5 1 3 7 10 11 11 8 12 9 1 3 4 7 11 10 9 7 6 10 8 9 11 12 15 14 14 9 6 4 4 3 3 6 6 8 5 7 5 14 11 11 9
5 3 4 6 9 11 13 11 9 9 8 4 3 1 11 10 8 6 2 4 8 8 8 10 13 15 15 8 6 9 9 4 3 3 5 5 6 5 7 1 11 13 13 12
1 5 6 7 10 11 12 8 7 8 6 3 5 2 13 12 8 1 1 8 7 5 6 10 11 14 15 11 7 9 7 7 4 4 4 4 5 3 2 3 7 11 13 13
5 8 7 8 10 10 11 11 9 9 5 3 3 1 11 11 7 3 2 10 4 2 5 9 13 20 20 23 17 11 9 7 4 4 5 4 4 4 4 5 7 10 13 15
9 10 10 10 8 7 9 8 10 9 5 7 4 1 3 6 5 4 6 11 3 6 7 10 13 18 21 22 19 19 4 12 11 8 6 6 5 5 6 6 7 9 13 14
11 13 13 10 6 6 8 10 9 10 8 9 8 4 4 6 8 8 9 8 3 4 5 10 14 18 25 17 22 32 14 4 10 9 11 10 10 9 9 9 10 12 14 15
13 14 9 6 7 9 11 10 7 10 12 13 13 11 11 11 10 8 10 11 10 9 7 10 15 15 20 21 16 26 15 14 12 9 11 13 12 13 12 12 12 14 17 16
11 12 7 8 7 7 8 7 8 8 13 17 18 18 17 16 16 13 11 12 14 12 11 12 18 12 21 15 23 18 18 16 15 14 14 13 15 17 16 14 14 16 18 18
14 13 9 8 8 10 9 9 9 8 9 10 11 12 16 18 19 17 14 13 15 16 20 21 15 21 16 13 21 20 18 21 19 13 16 13 16 18 19 18 16 16 19 21
16 15 14 14 13 12 13 10 9 13 18 19 18 16 16 18 18 20 21 19 20 19 20 23 17 15 18 20 20 22 22 24 21 17 14 15 17 20 21 21 19 16 18 19
18 18 17 14 14 10 9 13 15 19 20 23 23 22 20 21 22 23 24 25 25 27 29 29 22 22 20 20 22 21 24 22 22 16 14 14 18 26 24 20 20 15 17 20
14 17 16 17 15 14 15 19 22 22 27 27 28 28 27 24 25 26 26 26 27 29 30 29 27 27 26 25 23 21 21 15 17 12 11 18 21 23 27 15 22 13 13 21
16 16 17 17 18 19 22 24 27 27 28 29 32 32 31 31 30 28 28 30 30 30 28 29 35 34 33 29 27 25 27 24 20 20 19 23 24 22 21 24 12 11 13 14
20 21 21 20 22 24 26 27 29 29 31 34 33 35 32 33 34 34 34 33 33 33 33 34 36 35 34 33 32 31 32 29 28 28 21 23 27 24 16 15 18 14 12 11
24 22 23 23 25 27 30 31 31 31 32 33 35 36 36 35 34 36 37 38 38 37 38 41 40 41 42 40 39 35 34 32 29 29 26 24 22 27 34 23 20 18 11 11
29 29 28 29 29 31 32 29 31 32 33 35 37 38 39 39 39 38 39 40 40 40 41 42 42 43 43 44 42 39 38 36 33 30 30 23 25 23 19 27 26 29 14 12
29 29 30 30 28 30 30 27 31 34 36 37 38 39 39 39 39 39 39 41 42 42 42 42 43 44 44 45 46 46 41 36 33 35 32 28 27 29 28 30 30 22 21 17
25 25 27 27 27 30 30 32 34 36 38 40 41 41 42 42 41 40 39 39 42 44 45 46 45 45 45 45 45 46 47 45 40 39 38 35 30 31 33 35 31 27 26 23
24 26 28 29 29 32 34 35 37 39 41 40 41 41 41 41 41 41 44 44 45 46 47 47 49 48 47 45 48 48 47 45 45 44 41 39 38 35 37 40 38 35 31 30
25 25 26 28 31 35 36 38 39 41 44 40 42 42 40 38 36 36 37 38 38 40 42 42 44 47 50 49 51 52 50 50 49 47 44 42 40 40 41 44 47 43 39 37
22 24 27 30 33 36 38 40 41 43 43 43 41 39 38 38 37 35 36 35 36 36 37 39 40 41 43 47 50 50 52 55 56 56 53 51 46 45 43 46 48 52 44 41
24 27 30 33 35 39 39 41 41 42 42 40 38 38 38 35 31 30 30 30 32 34 36 38 40 40 39 40 42 45 49 53 56 60 59 60 56 50 46 46 52 50 52 49
27 29 32 33 35 38 39 42 42 41 38 37 37 36 30 26 28 31 34 37 40 42 40 41 45 47 48 46 45 44 42 43 47 49 49 49 49 54 50 51 51 53 54 58
29 31 32 34 35 38 39 40 39 37 35 36 33 28 27 31 32 36 39 40 39 39 42 43 43 43 47 50 50 48 48 46 43 42 44 47 47 47 51 48 52 54 56 56
31 32 33 35 38 37 36 38 37 35 35 33 30 29 31 36 40 44 45 41 40 42 44 47 46 43 41 41 45 49 52 51 50 44 41 42 42 46 51 53 52 59 58 54
31 33 35 36 38 36 35 36 36 36 34 33 32 33 38 44 48 49 47 45 48 47 47 47 44 42 39 41 42 45 49 50 49 46 41 43 40 41 44 46 50 55 56 55
Wind_Direction
121 162 170 345 352 341 346 335 307 292 297 313 123 170 214 168 139 122 97 320 332 328 331 335 332 342 57 3 351 352 22 334 307 300 300 288 279 278 293 356 193 204 202 204
134 212 347 337 336 333 326 323 304 293 297 310 86 121 191 142 155 149 136 298 318 339 326 313 314 342 22 42 15 29 5 332 296 310 313 268 283 301 316 196 175 208 213 214
267 272 316 324 318 319 319 313 311 277 287 303 37 73 171 181 179 150 267 335 311 347 322 327 351 351 349 349 9 26 2 341 292 276 282 279 259 258 265 238 216 221 227 229
269 288 295 291 292 310 307 304 286 265 273 311 8 168 182 186 211 245 286 327 318 327 340 329 340 358 354 351 355 355 339 323 304 268 268 261 244 250 228 225 236 243 237 244
272 275 272 278 277 287 279 279 263 259 237 275 312 314 233 208 236 239 284 280 348 35 359 331 330 332 342 338 334 317 346 338 317 279 247 254 245 238 242 232 224 242 250 261
257 265 268 258 270 261 274 276 269 260 243 255 278 306 294 284 275 270 251 237 291 344 313 305 308 328 344 328 1 344 321 326 298 287 263 252 249 236 227 231 237 235 237 245
248 249 249 246 259 266 281 291 288 238 223 243 261 275 288 286 279 277 237 234 269 277 284 312 342 341 347 4 356 0 334 313 276 272 269 260 255 250 240 228 226 236 239 234
235 226 234 245 257 273 288 292 292 271 248 255 269 275 285 293 299 304 298 263 256 271 285 305 332 324 285 354 351 350 354 303 294 258 269 259 257 250 246 243 236 237 242 240
217 216 224 225 251 262 270 287 285 284 282 282 285 281 275 279 287 287 289 286 281 292 304 309 272 317 312 336 335 336 344 335 333 283 257 255 257 256 248 242 245 246 251 248
228 238 232 231 241 255 265 283 286 292 299 292 293 285 281 284 290 299 301 297 297 305 305 305 315 314 314 308 327 320 321 325 312 301 271 279 269 259 252 249 245 254 259 259
241 241 240 243 250 254 281 302 298 290 297 300 300 297 298 296 291 289 288 288 291 293 298 301 297 305 306 309 315 325 317 316 311 294 261 278 280 264 245 244 248 246 261 273
249 247 231 245 261 279 285 281 277 283 295 294 294 297 301 296 294 294 291 286 284 286 291 295 295 297 297 296 299 303 311 325 324 300 256 282 277 282 288 262 243 258 279 280
254 245 239 247 254 263 268 271 282 291 294 295 297 301 300 300 299 292 285 283 282 281 284 282 283 287 289 293 293 292 293 296 295 296 289 270 264 268 281 287 309 273 282 288
240 239 246 261 266 271 280 286 291 296 297 294 296 295 297 296 293 289 286 282 280 280 281 278 278 281 288 291 292 290 289 288 288 290 290 311 254 268 266 267 272 272 279 279
258 257 261 271 282 287 288 289 290 293 290 290 292 293 293 289 287 285 284 281 281 278 276 276 279 281 284 284 284 281 280 277 276 274 280 285 292 254 257 255 257 261 254 259
265 270 276 280 284 285 283 285 287 287 291 291 289 288 289 289 287 282 279 278 276 272 272 273 273 275 276 276 277 277 276 277 274 267 266 268 269 280 245 253 257 263 263 255
266 271 275 276 281 282 285 290 289 292 292 292 293 293 291 289 286 282 279 277 275 273 272 270 269 268 270 270 271 272 270 268 268 270 265 259 247 248 254 256 250 253 255 261
273 274 275 281 283 284 292 296 296 296 295 295 296 295 294 294 292 288 283 276 273 271 270 268 266 266 267 267 268 271 273 270 264 262 266 262 249 244 239 249 249 241 249 253
277 281 285 287 291 295 296 296 295 295 294 295 293 291 292 290 289 286 281 279 274 270 268 267 267 266 264 264 266 265 265 267 271 265 259 254 250 243 243 237 245 244 250 253
275 277 281 287 289 292 295 295 296 295 296 298 297 299 298 295 290 283 280 277 276 275 274 273 271 267 265 262 262 263 263 263 260 259 260 258 252 249 248 242 235 241 248 252
276 281 286 290 291 293 297 299 300 299 300 300 301 300 299 298 296 294 290 286 283 281 279 278 275 271 270 264 262 259 256 257 259 258 258 255 253 253 251 246 242 239 240 245
284 288 292 294 297 299 302 300 297 298 298 300 298 298 297 297 297 295 294 291 289 288 289 287 285 281 276 271 269 267 262 256 253 255 254 258 260 258 251 247 245 243 241 241
285 288 293 295 297 298 299 298 299 299 298 296 295 292 291 293 294 295 294 291 288 286 286 285 286 285 281 276 273 271 267 263 259 255 254 252 251 250 251 248 246 247 243 240
287 292 296 297 297 298 299 298 297 298 298 295 292 289 287 289 292 297 296 296 292 283 285 288 288 281 276 274 272 269 265 265 265 261 255 253 248 246 242 245 247 246 247 242
293 297 298 300 300 301 298 295 298 300 299 296 289 285 286 291 297 300 299 297 289 289 287 286 287 285 282 278 275 270 265 262 261 262 258 255 250 246 243 244 240 241 242 243
298 300 301 302 302 303 300 301 303 302 298 298 300 296 295 298 300 302 302 301 298 294 290 289 288 287 285 282 280 274 263 256 254 255 253 249 250 247 245 244 241 243 243 243
Height
5912 5915 5915 5917 5918 5918 5919 5919 5918 5917 5917 5917 5917 5917 5916 5916 5915 5915 5914 5913 5911 5910 5908 5904 5901 5900 5898 5901 5898 5897 5893 5894 5893 5891 5891 5890 5890 5890 5888 5886 5891 5893 5896 5896
5912 5913 5915 5916 5917 5917 5917 5916 5916 5917 5916 5916 5917 5917 5916 5916 5916 5915 5914 5913 5911 5909 5908 5905 5901 5901 5903 5899 5896 5895 5895 5893 5892 5890 5890 5890 5889 5888 5888 5889 5890 5893 5894 5896
5910 5912 5914 5915 5915 5916 5915 5915 5914 5915 5915 5915 5915 5915 5915 5917 5916 5915 5914 5914 5911 5909 5908 5904 5902 5900 5898 5898 5894 5891 5893 5894 5892 5890 5889 5887 5888 5887 5888 5890 5892 5893 5894 5894
5909 5910 5912 5913 5913 5913 5913 5913 5914 5913 5914 5914 5915 5916 5916 5916 5915 5915 5915 5914 5911 5910 5908 5905 5902 5902 5900 5895 5894 5893 5894 5893 5890 5889 5888 5887 5886 5886 5886 5887 5890 5891 5892 5894
5909 5909 5910 5911 5911 5911 5912 5912 5912 5912 5912 5913 5914 5916 5915 5915 5915 5915 5914 5914 5912 5910 5908 5905 5903 5902 5900 5895 5893 5892 5891 5893 5892 5889 5886 5885 5885 5884 5884 5885 5887 5888 5889 5890
5906 5906 5908 5909 5909 5910 5910 5910 5911 5911 5912 5912 5912 5914 5914 5914 5914 5914 5913 5912 5910 5909 5907 5906 5904 5903 5900 5894 5893 5887 5884 5886 5888 5887 5886 5884 5882 5882 5882 5882 5883 5885 5886 5886
5904 5905 5906 5907 5908 5908 5909 5909 5910 5911 5911 5911 5910 5912 5911 5911 5912 5912 5911 5910 5909 5908 5907 5906 5905 5903 5898 5895 5892 5889 5883 5884 5885 5884 5885 5885 5883 5881 5880 5879 5879 5880 5881 5881
5901 5903 5904 5905 5907 5907 5907 5908 5908 5908 5909 5908 5907 5908 5908 5907 5907 5907 5907 5908 5906 5906 5906 5905 5902 5899 5890 5893 5891 5889 5885 5883 5883 5883 5883 5882 5881 5880 5879 5878 5876 5876 5877 5878
5899 5901 5902 5903 5904 5906 5906 5906 5906 5905 5905 5904 5904 5904 5903 5903 5902 5903 5903 5902 5902 5902 5902 5901 5897 5896 5894 5890 5889 5886 5884 5882 5879 5879 5879 5879 5879 5878 5878 5875 5874 5873 5874 5874
5897 5899 5900 5901 5902 5903 5903 5904 5903 5901 5900 5899 5899 5899 5898 5898 5898 5897 5896 5897 5896 5896 5894 5893 5894 5893 5890 5887 5885 5881 5880 5879 5878 5875 5876 5876 5877 5878 5875 5872 5870 5869 5869 5869
5895 5895 5897 5898 5899 5899 5900 5899 5898 5897 5896 5894 5893 5894 5893 5893 5892 5891 5890 5890 5889 5888 5886 5886 5887 5885 5884 5882 5879 5877 5876 5874 5872 5870 5872 5875 5876 5869 5861 5863 5865 5862 5864 5864
5892 5892 5893 5894 5894 5895 5895 5894 5893 5892 5891 5889 5887 5886 5885 5886 5885 5884 5883 5882 5882 5881 5879 5878 5876 5876 5876 5876 5875 5873 5871 5871 5869 5868 5870 5872 5870 5862 5851 5848 5860 5859 5859 5860
5889 5889 5889 5889 5890 5889 5889 5888 5887 5886 5884 5881 5879 5879 5877 5876 5875 5876 5875 5874 5873 5874 5873 5871 5867 5867 5867 5866 5866 5866 5864 5865 5867 5867 5867 5867 5863 5863 5859 5855 5852 5856 5858 5858
5883 5884 5884 5884 5883 5883 5883 5881 5879 5879 5876 5873 5872 5869 5870 5868 5866 5865 5864 5864 5863 5863 5863 5862 5860 5859 5859 5858 5859 5858 5857 5858 5858 5858 5858 5858 5859 5855 5856 5855 5855 5852 5851 5854
5876 5877 5877 5877 5876 5876 5875 5874 5873 5871 5869 5866 5864 5860 5860 5859 5857 5854 5853 5851 5851 5851 5851 5850 5849 5848 5848 5848 5849 5850 5849 5849 5850 5851 5852 5852 5853 5853 5851 5849 5853 5851 5849 5850
5869 5869 5870 5870 5870 5869 5867 5867 5865 5862 5860 5857 5855 5853 5851 5848 5847 5845 5843 5840 5840 5839 5839 5838 5838 5837 5836 5835 5835 5836 5837 5837 5839 5841 5842 5844 5845 5846 5844 5846 5846 5847 5843 5844
5863 5864 5863 5863 5863 5860 5859 5860 5856 5854 5851 5847 5845 5843 5841 5838 5836 5834 5832 5831 5828 5827 5826 5825 5824 5822 5822 5821 5820 5821 5824 5825 5827 5829 5832 5835 5836 5837 5838 5839 5840 5838 5839 5840
5856 5856 5856 5855 5855 5852 5852 5850 5847 5844 5840 5837 5834 5831 5828 5826 5823 5821 5819 5818 5816 5814 5813 5812 5812 5811 5811 5811 5811 5809 5810 5812 5814 5817 5819 5823 5826 5827 5829 5831 5832 5831 5832 5835
5849 5848 5847 5846 5846 5844 5842 5840 5838 5834 5830 5828 5824 5821 5818 5816 5812 5809 5804 5801 5800 5800 5799 5799 5799 5798 5798 5798 5797 5798 5799 5800 5801 5804 5807 5809 5812 5815 5817 5819 5821 5825 5825 5826
5843 5842 5842 5840 5838 5835 5833 5830 5828 5823 5818 5816 5811 5807 5804 5800 5799 5795 5792 5789 5786 5783 5781 5781 5781 5782 5783 5785 5783 5784 5786 5785 5786 5788 5791 5796 5800 5801 5803 5806 5808 5812 5815 5818
5836 5835 5834 5832 5829 5827 5823 5820 5815 5811 5809 5802 5798 5794 5790 5787 5785 5782 5778 5775 5772 5770 5769 5767 5766 5767 5766 5766 5765 5767 5769 5771 5771 5772 5776 5778 5783 5788 5789 5791 5794 5797 5801 5805
5829 5828 5826 5823 5820 5816 5813 5808 5805 5801 5795 5791 5787 5783 5779 5776 5774 5770 5768 5766 5763 5760 5757 5755 5753 5752 5752 5751 5750 5751 5750 5752 5752 5752 5757 5761 5765 5769 5773 5777 5780 5784 5788 5792
5823 5821 5819 5816 5812 5807 5802 5797 5793 5789 5785 5781 5778 5774 5770 5767 5765 5762 5759 5756 5752 5748 5745 5742 5738 5736 5735 5734 5734 5733 5735 5733 5734 5736 5738 5743 5747 5753 5756 5760 5765 5768 5774 5778
5814 5812 5810 5806 5803 5798 5793 5787 5783 5779 5776 5771 5767 5765 5762 5758 5756 5753 5748 5744 5739 5735 5732 5728 5726 5723 5719 5717 5716 5717 5718 5718 5718 5719 5722 5725 5729 5733 5739 5745 5749 5753 5756 5762
5806 5803 5800 5796 5791 5788 5782 5776 5773 5769 5765 5761 5758 5755 5752 5747 5744 5739 5734 5730 5725 5722 5718 5712 5709 5705 5704 5702 5701 5699 5699 5700 5702 5704 5707 5710 5713 5716 5721 5727 5732 5736 5741 5747
5797 5794 5791 5787 5782 5777 5772 5767 5762 5759 5754 5751 5747 5746 5741 5735 5728 5724 5720 5716 5710 5705 5701 5695 5692 5690 5689 5686 5684 5681 5680 5681 5685 5689 5691 5694 5697 5701 5705 5709 5716 5721 5725 5732